Cape Cod CGAS, MA

9:47 PM EST on February 24, 2018 (GMT -0500)
Cape Cod Coast Guard Air Station

Weather History for KFMH - October, 2013

Change the Weather History Date:

Friday, October 18, 2013

  Actual Average Record
Temperature  
Mean Temperature 56 °F -  
Max Temperature 68 °F 56 °F 75 °F (2016)
Min Temperature 44 °F 41 °F 32 °F (2015)
Degree Days  
Heating Degree Days 9    
Growing Degree Days 6 (Base 50)    
Moisture  
Dew Point 53 °F    
Average Humidity 76    
Maximum Humidity 100    
Minimum Humidity 46    
Precipitation  
Precipitation 0.00 in - - ()
Sea Level Pressure  
Sea Level Pressure 29.77 in    
Wind  
Wind Speed 11 mph (WSW)    
Max Wind Speed 20 mph    
Max Gust Speed 29 mph    
Visibility 10 miles    
Events Rain    
Averages and records for this station are not official NWS values.
T = Trace of Precipitation, MM = Missing Value Source: NWS Daily Summary

Daily Weather History Graph

Daily Weather History Graph

Search for Another Location

Airport or City:

Trip Planner

Search our weather history database for the weather conditions in past years. The results will help you decide how hot, cold, wet, or windy it might be!

Date:

Astronomy

Oct. 18, 2013 Rise Set
Actual Time 6:57 AM EDT 5:55 PM EDT
Civil Twilight 6:29 AM EDT 6:23 PM EDT
Nautical Twilight 5:57 AM EDT 6:56 PM EDT
Astronomical Twilight 5:25 AM EDT 7:28 PM EDT
Moon 5:43 PM EDT (10/18) 6:29 AM EDT (10/18)
Length of Visible Light 11h 54m
Length of Day
10h 58m
Full, 100% of the Moon is Illuminated
Oct 18
Full
Oct 18
Full
Oct 26
Last Quarter
Nov 3
New
Nov 10
First Quarter

Hourly Weather History & Observations

Time (EDT) Temp. Windchill Dew Point Humidity Pressure Visibility Wind Dir Wind Speed Gust Speed Precip Events Conditions
12:15 AM 62.6 °F - 59.0 °F 88% 29.76 in 10.0 mi WSW 11.5 mph - N/A   Overcast
12:35 AM 62.6 °F - 59.0 °F 88% 29.76 in 10.0 mi SW 10.4 mph - N/A   Overcast
12:55 AM 62.6 °F - 59.0 °F 88% 29.76 in 10.0 mi SW 9.2 mph 18.4 mph N/A   Overcast
1:15 AM 62.6 °F - 59.0 °F 88% 29.75 in 10.0 mi SW 9.2 mph - N/A   Overcast
1:35 AM 62.6 °F - 59.0 °F 88% 29.74 in 10.0 mi SW 6.9 mph - N/A   Overcast
1:55 AM 62.6 °F - 59.0 °F 88% 29.74 in 10.0 mi SW 10.4 mph - N/A   Overcast
2:15 AM 62.6 °F - 60.8 °F 94% 29.73 in 10.0 mi SW 11.5 mph - N/A   Overcast
2:35 AM 62.6 °F - 60.8 °F 94% 29.72 in 10.0 mi SSW 9.2 mph - N/A   Overcast
2:55 AM 62.6 °F - 60.8 °F 94% 29.72 in 7.0 mi SSW 6.9 mph - N/A Rain Light Rain
3:15 AM 62.6 °F - 60.8 °F 94% 29.71 in 9.0 mi SSW 10.4 mph - N/A   Overcast
3:35 AM 62.6 °F - 60.8 °F 94% 29.70 in 8.0 mi South 10.4 mph - N/A   Overcast
3:55 AM 62.6 °F - 60.8 °F 94% 29.69 in 8.0 mi South 9.2 mph - N/A   Overcast
4:15 AM 62.6 °F - 60.8 °F 94% 29.69 in 10.0 mi SSW 9.2 mph - N/A   Overcast
4:35 AM 62.6 °F - 62.6 °F 100% 29.68 in 3.0 mi SW 12.7 mph - N/A Rain Light Rain
4:55 AM 62.6 °F - 62.6 °F 100% 29.68 in 3.0 mi SSW 15.0 mph 23.0 mph N/A   Overcast
5:15 AM 62.6 °F - 62.6 °F 100% 29.67 in 10.0 mi SSW 15.0 mph 18.4 mph N/A   Overcast
5:35 AM 62.6 °F - 62.6 °F 100% 29.66 in 10.0 mi SW 16.1 mph 21.9 mph N/A   Overcast
5:55 AM 62.6 °F - 62.6 °F 100% 29.66 in 10.0 mi SW 15.0 mph 21.9 mph N/A   Overcast
6:15 AM 64.4 °F - 62.6 °F 94% 29.66 in 10.0 mi SW 16.1 mph 21.9 mph N/A   Overcast
6:35 AM 62.6 °F - 62.6 °F 100% 29.66 in 10.0 mi WSW 19.6 mph 25.3 mph N/A   Overcast
6:55 AM 62.6 °F - 62.6 °F 100% 29.66 in 9.0 mi WSW 17.3 mph 28.8 mph N/A   Overcast
7:15 AM 62.6 °F - 62.6 °F 100% 29.67 in 8.0 mi WSW 18.4 mph 26.5 mph N/A   Overcast
7:35 AM 62.6 °F - 60.8 °F 94% 29.67 in 6.0 mi WSW 15.0 mph 18.4 mph N/A   Overcast
7:55 AM 62.6 °F - 60.8 °F 94% 29.68 in 6.0 mi WSW 11.5 mph 18.4 mph N/A   Mostly Cloudy
8:15 AM 62.6 °F - 62.6 °F 100% 29.69 in 7.0 mi West 11.5 mph - N/A   Mostly Cloudy
8:35 AM 64.4 °F - 60.8 °F 88% 29.70 in 9.0 mi West 11.5 mph - N/A   Partly Cloudy
8:55 AM 64.4 °F - 59.0 °F 83% 29.71 in 10.0 mi West 13.8 mph 20.7 mph N/A   Partly Cloudy
9:15 AM 64.4 °F - 59.0 °F 83% 29.72 in 10.0 mi WNW 15.0 mph 19.6 mph N/A   Mostly Cloudy
9:35 AM 64.4 °F - 53.6 °F 68% 29.73 in 10.0 mi WNW 17.3 mph 25.3 mph N/A   Scattered Clouds
9:55 AM 64.4 °F - 51.8 °F 64% 29.74 in 10.0 mi NW 12.7 mph 24.2 mph N/A   Clear
10:15 AM 66.2 °F - 51.8 °F 60% 29.74 in 10.0 mi WNW 13.8 mph 19.6 mph N/A   Clear
10:35 AM 66.2 °F - 50.0 °F 56% 29.75 in 10.0 mi WNW 17.3 mph 23.0 mph N/A   Clear
10:55 AM 66.2 °F - 50.0 °F 56% 29.76 in 10.0 mi West 15.0 mph - N/A   Clear
11:15 AM 66.2 °F - 50.0 °F 56% 29.76 in 10.0 mi West 13.8 mph - N/A   Clear
11:35 AM 68.0 °F - 50.0 °F 52% 29.76 in 10.0 mi West 13.8 mph - N/A   Clear
11:55 AM 68.0 °F - 48.2 °F 49% 29.76 in 10.0 mi West 17.3 mph 21.9 mph N/A   Clear
12:15 PM 68.0 °F - 48.2 °F 49% 29.76 in 10.0 mi West 15.0 mph 19.6 mph N/A   Clear
12:35 PM 68.0 °F - 48.2 °F 49% 29.76 in 10.0 mi West 13.8 mph 20.7 mph N/A   Clear
12:55 PM 68.0 °F - 48.2 °F 49% 29.76 in 10.0 mi WNW 15.0 mph 23.0 mph N/A   Clear
1:15 PM 68.0 °F - 48.2 °F 49% 29.76 in 10.0 mi West 16.1 mph 20.7 mph N/A   Clear
1:35 PM 68.0 °F - 48.2 °F 49% 29.76 in 10.0 mi West 18.4 mph 21.9 mph N/A   Clear
1:55 PM 68.0 °F - 46.4 °F 46% 29.76 in 10.0 mi West 19.6 mph - N/A   Clear
2:15 PM 68.0 °F - 46.4 °F 46% 29.77 in 10.0 mi West 19.6 mph 24.2 mph N/A   Clear
2:35 PM 68.0 °F - 46.4 °F 46% 29.77 in 10.0 mi West 15.0 mph 20.7 mph N/A   Clear
2:55 PM 68.0 °F - 46.4 °F 46% 29.78 in 10.0 mi West 15.0 mph 20.7 mph N/A   Clear
3:15 PM 68.0 °F - 46.4 °F 46% 29.78 in 10.0 mi West 13.8 mph - N/A   Clear
3:35 PM 68.0 °F - 46.4 °F 46% 29.78 in 10.0 mi West 15.0 mph 21.9 mph N/A   Clear
3:55 PM 68.0 °F - 46.4 °F 46% 29.78 in 10.0 mi West 16.1 mph 23.0 mph N/A   Clear
4:15 PM 66.2 °F - 46.4 °F 49% 29.79 in 10.0 mi West 13.8 mph 20.7 mph N/A   Partly Cloudy
4:35 PM 66.2 °F - 50.0 °F 56% 29.80 in 10.0 mi WSW 18.4 mph 21.9 mph N/A   Partly Cloudy
4:55 PM 64.4 °F - 51.8 °F 64% 29.80 in 10.0 mi WSW 13.8 mph - N/A   Clear
5:15 PM 64.4 °F - 50.0 °F 59% 29.81 in 10.0 mi WSW 10.4 mph - N/A   Clear
5:35 PM 62.6 °F - 51.8 °F 68% 29.81 in 10.0 mi WSW 9.2 mph - N/A   Clear
5:55 PM 60.8 °F - 51.8 °F 72% 29.82 in 10.0 mi WSW 10.4 mph - N/A   Clear
6:15 PM 59.0 °F - 51.8 °F 77% 29.83 in 10.0 mi West 4.6 mph - N/A   Clear
6:35 PM 57.2 °F - 50.0 °F 77% 29.84 in 10.0 mi West 3.5 mph - N/A   Clear
6:55 PM 55.4 °F - 50.0 °F 82% 29.85 in 10.0 mi NW 3.5 mph - N/A   Clear
7:15 PM 55.4 °F - 46.4 °F 72% 29.85 in 10.0 mi WNW 6.9 mph - N/A   Clear
7:35 PM 53.6 °F - 46.4 °F 77% 29.86 in 10.0 mi NW 3.5 mph - N/A   Clear
7:55 PM 53.6 °F - 44.6 °F 72% 29.87 in 10.0 mi NW 4.6 mph - N/A   Clear
8:15 PM 53.6 °F - 44.6 °F 72% 29.87 in 10.0 mi Calm Calm - N/A   Clear
8:35 PM 50.0 °F - 44.6 °F 82% 29.88 in 10.0 mi Calm Calm - N/A   Clear
8:55 PM 48.2 °F - 44.6 °F 87% 29.88 in 10.0 mi Calm Calm - N/A   Clear
9:15 PM 48.2 °F - 44.6 °F 87% 29.89 in 10.0 mi Calm Calm - N/A   Clear
9:35 PM 46.4 °F - 44.6 °F 93% 29.90 in 10.0 mi Calm Calm - N/A   Clear
9:55 PM 46.4 °F - 42.8 °F 87% 29.90 in 10.0 mi Calm Calm - N/A   Clear
10:15 PM 46.4 °F - 44.6 °F 93% 29.91 in 10.0 mi Calm Calm - N/A   Clear
10:35 PM 46.4 °F - 42.8 °F 87% 29.91 in 10.0 mi Calm Calm - N/A   Clear
10:55 PM 44.6 °F - 42.8 °F 93% 29.92 in 10.0 mi Calm Calm - N/A   Clear
11:15 PM 44.6 °F - 41.0 °F 87% 29.92 in 10.0 mi Calm Calm - N/A   Clear
11:35 PM 44.6 °F - 41.0 °F 87% 29.93 in 10.0 mi Calm Calm - N/A   Clear
11:55 PM 46.4 °F 43.5 °F 42.8 °F 87% 29.93 in 10.0 mi WNW 5.8 mph - N/A   Clear